owner,sensor,date,latitude,longitude,vertical_datum,wind_speed,wind_to_direction,wind_speed_of_gust,qcFlag 
DISL,ioos:station:DISL:MBLA:1,2016-01-01T00:00:00Z,30.4367,-88.0117,14.2,12.4,355.0,99.0,'11111222,11111222,11144222' 
DISL,ioos:station:DISL:MBLA:1,2016-01-01T00:30:00Z,30.4367,-88.0117,14.2,10.2,9.0,99.0,'11111222,11111222,11144222' 
DISL,ioos:station:DISL:MBLA:1,2016-01-01T01:00:00Z,30.4367,-88.0117,14.2,10.3,20.0,99.0,'11111222,11111222,11144222' 
DISL,ioos:station:DISL:MBLA:1,2016-01-01T01:30:00Z,30.4367,-88.0117,14.2,10.8,27.0,99.0,'11111222,11111222,11144222' 
DISL,ioos:station:DISL:MBLA:1,2016-01-01T02:00:00Z,30.4367,-88.0117,14.2,10.8,31.0,99.0,'11111222,11111222,11144222' 
DISL,ioos:station:DISL:MBLA:1,2016-01-01T02:30:00Z,30.4367,-88.0117,14.2,11.4,25.0,99.0,'11111222,11111222,11144222' 
DISL,ioos:station:DISL:MBLA:1,2016-01-01T03:00:00Z,30.4367,-88.0117,14.2,11.9,25.0,99.0,'11111222,11111222,11144222' 
DISL,ioos:station:DISL:MBLA:1,2016-01-01T03:30:00Z,30.4367,-88.0117,14.2,11.6,21.0,99.0,'11111222,11111222,11144222' 
DISL,ioos:station:DISL:MBLA:1,2016-01-01T04:00:00Z,30.4367,-88.0117,14.2,13.4,21.0,99.0,'11111222,11111222,11144222' 
DISL,ioos:station:DISL:MBLA:1,2016-01-01T04:30:00Z,30.4367,-88.0117,14.2,13.0,27.0,99.0,'11111222,11111222,11144222' 
DISL,ioos:station:DISL:MBLA:1,2016-01-01T05:00:00Z,30.4367,-88.0117,14.2,10.4,21.0,99.0,'11111222,11111222,11144222' 
DISL,ioos:station:DISL:MBLA:1,2016-01-01T06:30:00Z,30.4367,-88.0117,14.2,11.53,25.36,-9999.0,'1111122,1111122,1111122' 
DISL,ioos:station:DISL:MBLA:1,2016-01-01T07:00:00Z,30.4367,-88.0117,14.2,10.74,19.1,-9999.0,'1111122,1111122,1111122' 
DISL,ioos:station:DISL:MBLA:1,2016-01-01T07:30:00Z,30.4367,-88.0117,14.2,10.08,359.3,-9999.0,'1111122,1111122,1111122' 
DISL,ioos:station:DISL:MBLA:1,2016-01-01T08:00:00Z,30.4367,-88.0117,14.2,11.47,350.9,-9999.0,'1111122,1111122,1111122' 
DISL,ioos:station:DISL:MBLA:1,2016-01-01T08:30:00Z,30.4367,-88.0117,14.2,10.49,356.8,-9999.0,'1111122,1111122,1111122' 
DISL,ioos:station:DISL:MBLA:1,2016-01-01T09:00:00Z,30.4367,-88.0117,14.2,11.63,359.6,-9999.0,'1111122,1111122,1111122' 
DISL,ioos:station:DISL:MBLA:1,2016-01-01T09:30:00Z,30.4367,-88.0117,14.2,10.85,0.021,-9999.0,'1111122,1111122,1111122' 
DISL,ioos:station:DISL:MBLA:1,2016-01-01T10:00:00Z,30.4367,-88.0117,14.2,11.95,358.9,-9999.0,'1111122,1111122,1111122' 
DISL,ioos:station:DISL:MBLA:1,2016-01-01T10:30:00Z,30.4367,-88.0117,14.2,12.8,350.0,-9999.0,'1111122,1111122,1111122' 
DISL,ioos:station:DISL:MBLA:1,2016-01-01T11:00:00Z,30.4367,-88.0117,14.2,13.0,357.4,-9999.0,'1111122,1111122,1111122' 
DISL,ioos:station:DISL:MBLA:1,2016-01-01T11:30:00Z,30.4367,-88.0117,14.2,13.41,339.4,-9999.0,'1111122,1111122,1111122' 
DISL,ioos:station:DISL:MBLA:1,2016-01-01T12:00:00Z,30.4367,-88.0117,14.2,13.83,350.6,-9999.0,'1111122,1111122,1111122' 
DISL,ioos:station:DISL:MBLA:1,2016-01-01T12:30:00Z,30.4367,-88.0117,14.2,14.94,1.098,-9999.0,'1111122,1111122,1111122' 
DISL,ioos:station:DISL:MBLA:1,2016-01-01T13:00:00Z,30.4367,-88.0117,14.2,14.07,348.3,-9999.0,'1111122,1111122,1111122' 
DISL,ioos:station:DISL:MBLA:1,2016-01-01T13:30:00Z,30.4367,-88.0117,14.2,12.36,354.0,-9999.0,'1111122,1111122,1111122' 
DISL,ioos:station:DISL:MBLA:1,2016-01-01T14:00:00Z,30.4367,-88.0117,14.2,13.3,353.5,-9999.0,'1111122,1111122,1111122' 
DISL,ioos:station:DISL:MBLA:1,2016-01-01T14:30:00Z,30.4367,-88.0117,14.2,9.53,6.494,-9999.0,'1111122,1111122,1111122' 
DISL,ioos:station:DISL:MBLA:1,2016-01-01T15:00:00Z,30.4367,-88.0117,14.2,9.21,22.78,-9999.0,'1111122,1111122,1111122' 
DISL,ioos:station:DISL:MBLA:1,2016-01-01T15:30:00Z,30.4367,-88.0117,14.2,8.6,22.69,-9999.0,'1111122,1111122,1111122' 
DISL,ioos:station:DISL:MBLA:1,2016-01-01T16:00:00Z,30.4367,-88.0117,14.2,10.27,21.59,-9999.0,'1111122,1111122,1111122' 
DISL,ioos:station:DISL:MBLA:1,2016-01-01T16:30:00Z,30.4367,-88.0117,14.2,10.84,8.95,-9999.0,'1111122,1111122,1111122' 
DISL,ioos:station:DISL:MBLA:1,2016-01-01T17:00:00Z,30.4367,-88.0117,14.2,10.11,342.4,-9999.0,'1111122,1111122,1111122' 
DISL,ioos:station:DISL:MBLA:1,2016-01-01T17:30:00Z,30.4367,-88.0117,14.2,11.85,347.7,-9999.0,'1111122,1111122,1111122' 
DISL,ioos:station:DISL:MBLA:1,2016-01-01T18:00:00Z,30.4367,-88.0117,14.2,12.25,344.5,-9999.0,'1111122,1111122,1111122' 
DISL,ioos:station:DISL:MBLA:1,2016-01-01T18:30:00Z,30.4367,-88.0117,14.2,12.51,348.1,-9999.0,'1111122,1111122,1111122' 
DISL,ioos:station:DISL:MBLA:1,2016-01-01T19:00:00Z,30.4367,-88.0117,14.2,13.56,353.5,-9999.0,'1111122,1111122,1111122' 
DISL,ioos:station:DISL:MBLA:1,2016-01-01T19:30:00Z,30.4367,-88.0117,14.2,12.32,359.2,-9999.0,'1111122,1111122,1111122' 
DISL,ioos:station:DISL:MBLA:1,2016-01-01T20:00:00Z,30.4367,-88.0117,14.2,12.3,358.8,-9999.0,'1111122,1111122,1111122' 
DISL,ioos:station:DISL:MBLA:1,2016-01-01T20:30:00Z,30.4367,-88.0117,14.2,10.55,6.801,-9999.0,'1111122,1111122,1111122' 
DISL,ioos:station:DISL:MBLA:1,2016-01-01T21:00:00Z,30.4367,-88.0117,14.2,9.04,13.61,-9999.0,'1111122,1111122,1111122' 
DISL,ioos:station:DISL:MBLA:1,2016-01-01T21:30:00Z,30.4367,-88.0117,14.2,9.72,4.733,-9999.0,'1111122,1111122,1111122' 
DISL,ioos:station:DISL:MBLA:1,2016-01-01T22:00:00Z,30.4367,-88.0117,14.2,10.67,7.328,-9999.0,'1111122,1111122,1111122' 
DISL,ioos:station:DISL:MBLA:1,2016-01-01T22:30:00Z,30.4367,-88.0117,14.2,11.68,6.857,-9999.0,'1111122,1111122,1111122' 
DISL,ioos:station:DISL:MBLA:1,2016-01-01T23:00:00Z,30.4367,-88.0117,14.2,12.93,3.823,-9999.0,'1111122,1111122,1111122' 
DISL,ioos:station:DISL:MBLA:1,2016-01-01T23:30:00Z,30.4367,-88.0117,14.2,12.97,8.36,-9999.0,'1111122,1111122,1111122' 
DISL,ioos:station:DISL:MBLA:1,2016-01-02T00:00:00Z,30.4367,-88.0117,14.2,12.93,0.426,-9999.0,'1111122,1111122,1111122' 
DISL,ioos:station:DISL:MBLA:1,2016-01-02T00:30:00Z,30.4367,-88.0117,14.2,13.06,1.371,-9999.0,'1111122,1111122,1111122' 
DISL,ioos:station:DISL:MBLA:1,2016-01-02T01:00:00Z,30.4367,-88.0117,14.2,12.19,0.79,-9999.0,'1111122,1111122,1111122' 
DISL,ioos:station:DISL:MBLA:1,2016-01-02T01:30:00Z,30.4367,-88.0117,14.2,12.52,7.221,-9999.0,'1111122,1111122,1111122' 
DISL,ioos:station:DISL:MBLA:1,2016-01-02T02:00:00Z,30.4367,-88.0117,14.2,11.92,4.782,-9999.0,'1111122,1111122,1111122' 
DISL,ioos:station:DISL:MBLA:1,2016-01-02T02:30:00Z,30.4367,-88.0117,14.2,11.7,4.304,-9999.0,'1111122,1111122,1111122' 
DISL,ioos:station:DISL:MBLA:1,2016-01-02T03:00:00Z,30.4367,-88.0117,14.2,12.8,0.535,-9999.0,'1111122,1111122,1111122' 
DISL,ioos:station:DISL:MBLA:1,2016-01-02T03:30:00Z,30.4367,-88.0117,14.2,11.81,7.294,-9999.0,'1111122,1111122,1111122' 
DISL,ioos:station:DISL:MBLA:1,2016-01-02T04:00:00Z,30.4367,-88.0117,14.2,11.62,7.857,-9999.0,'1111122,1111122,1111122' 
DISL,ioos:station:DISL:MBLA:1,2016-01-02T04:30:00Z,30.4367,-88.0117,14.2,9.18,17.16,-9999.0,'1111122,1111122,1111122' 
DISL,ioos:station:DISL:MBLA:1,2016-01-02T05:00:00Z,30.4367,-88.0117,14.2,9.76,1.907,-9999.0,'1111122,1111122,1111122' 
DISL,ioos:station:DISL:MBLA:1,2016-01-02T05:30:00Z,30.4367,-88.0117,14.2,9.55,356.9,-9999.0,'1111122,1111122,1111122' 
DISL,ioos:station:DISL:MBLA:1,2016-01-02T06:00:00Z,30.4367,-88.0117,14.2,9.12,15.1,-9999.0,'1111122,1111122,1111122' 
DISL,ioos:station:DISL:MBLA:1,2016-01-02T06:30:00Z,30.4367,-88.0117,14.2,9.86,6.053,-9999.0,'1111122,1111122,1111122' 
DISL,ioos:station:DISL:MBLA:1,2016-01-02T07:00:00Z,30.4367,-88.0117,14.2,9.25,14.96,-9999.0,'1111122,1111122,1111122' 
DISL,ioos:station:DISL:MBLA:1,2016-01-02T07:30:00Z,30.4367,-88.0117,14.2,10.55,3.801,-9999.0,'1111122,1111122,1111122' 
DISL,ioos:station:DISL:MBLA:1,2016-01-02T08:00:00Z,30.4367,-88.0117,14.2,11.15,354.8,-9999.0,'1111122,1111122,1111122' 
DISL,ioos:station:DISL:MBLA:1,2016-01-02T08:30:00Z,30.4367,-88.0117,14.2,10.94,358.4,-9999.0,'1111122,1111122,1111122' 
DISL,ioos:station:DISL:MBLA:1,2016-01-02T09:00:00Z,30.4367,-88.0117,14.2,10.87,0.232,-9999.0,'1111122,1111122,1111122' 
DISL,ioos:station:DISL:MBLA:1,2016-01-02T09:30:00Z,30.4367,-88.0117,14.2,10.44,358.3,-9999.0,'1111122,1111122,1111122' 
DISL,ioos:station:DISL:MBLA:1,2016-01-02T10:00:00Z,30.4367,-88.0117,14.2,10.18,6.976,-9999.0,'1111122,1111122,1111122' 
DISL,ioos:station:DISL:MBLA:1,2016-01-02T10:30:00Z,30.4367,-88.0117,14.2,9.94,18.13,-9999.0,'1111122,1111122,1111122' 
DISL,ioos:station:DISL:MBLA:1,2016-01-02T11:00:00Z,30.4367,-88.0117,14.2,11.0,16.75,-9999.0,'1111122,1111122,1111122' 
DISL,ioos:station:DISL:MBLA:1,2016-01-02T11:30:00Z,30.4367,-88.0117,14.2,13.28,22.94,-9999.0,'1111122,1111122,1111122' 
DISL,ioos:station:DISL:MBLA:1,2016-01-02T12:00:00Z,30.4367,-88.0117,14.2,13.25,13.93,-9999.0,'1111122,1111122,1111122' 
DISL,ioos:station:DISL:MBLA:1,2016-01-02T12:30:00Z,30.4367,-88.0117,14.2,13.13,18.98,-9999.0,'1111122,1111122,1111122' 
DISL,ioos:station:DISL:MBLA:1,2016-01-02T13:00:00Z,30.4367,-88.0117,14.2,12.75,15.46,-9999.0,'1111122,1111122,1111122' 
DISL,ioos:station:DISL:MBLA:1,2016-01-02T13:30:00Z,30.4367,-88.0117,14.2,13.26,16.33,-9999.0,'1111122,1111122,1111122' 
DISL,ioos:station:DISL:MBLA:1,2016-01-02T14:00:00Z,30.4367,-88.0117,14.2,12.24,13.11,-9999.0,'1111122,1111122,1111122' 
DISL,ioos:station:DISL:MBLA:1,2016-01-02T14:30:00Z,30.4367,-88.0117,14.2,11.87,19.64,-9999.0,'1111122,1111122,1111122' 
DISL,ioos:station:DISL:MBLA:1,2016-01-02T15:00:00Z,30.4367,-88.0117,14.2,11.42,14.48,-9999.0,'1111122,1111122,1111122' 
DISL,ioos:station:DISL:MBLA:1,2016-01-02T15:30:00Z,30.4367,-88.0117,14.2,11.62,16.12,-9999.0,'1111122,1111122,1111122' 
DISL,ioos:station:DISL:MBLA:1,2016-01-02T16:00:00Z,30.4367,-88.0117,14.2,10.95,15.69,-9999.0,'1111122,1111122,1111122' 
DISL,ioos:station:DISL:MBLA:1,2016-01-02T16:30:00Z,30.4367,-88.0117,14.2,10.09,12.69,-9999.0,'1111122,1111122,1111122' 
DISL,ioos:station:DISL:MBLA:1,2016-01-02T17:00:00Z,30.4367,-88.0117,14.2,10.94,11.15,-9999.0,'1111122,1111122,1111122' 
DISL,ioos:station:DISL:MBLA:1,2016-01-02T17:30:00Z,30.4367,-88.0117,14.2,10.14,7.882,-9999.0,'1111122,1111122,1111122' 
DISL,ioos:station:DISL:MBLA:1,2016-01-02T18:00:00Z,30.4367,-88.0117,14.2,9.35,9.17,-9999.0,'1111122,1111122,1111122' 
DISL,ioos:station:DISL:MBLA:1,2016-01-02T18:30:00Z,30.4367,-88.0117,14.2,7.72,4.455,-9999.0,'1111122,1111122,1111122' 
DISL,ioos:station:DISL:MBLA:1,2016-01-02T19:00:00Z,30.4367,-88.0117,14.2,8.26,0.009,-9999.0,'1111122,1111122,1111122' 
DISL,ioos:station:DISL:MBLA:1,2016-01-02T19:30:00Z,30.4367,-88.0117,14.2,7.94,10.42,-9999.0,'1111122,1111122,1111122' 
DISL,ioos:station:DISL:MBLA:1,2016-01-02T20:00:00Z,30.4367,-88.0117,14.2,9.6,2.117,-9999.0,'1111122,1111122,1111122' 
DISL,ioos:station:DISL:MBLA:1,2016-01-02T20:30:00Z,30.4367,-88.0117,14.2,8.66,3.961,-9999.0,'1111122,1111122,1111122' 
DISL,ioos:station:DISL:MBLA:1,2016-01-02T21:00:00Z,30.4367,-88.0117,14.2,8.32,352.5,-9999.0,'1111122,1111122,1111122' 
DISL,ioos:station:DISL:MBLA:1,2016-01-02T21:30:00Z,30.4367,-88.0117,14.2,8.09,351.2,-9999.0,'1111122,1111122,1111122' 
DISL,ioos:station:DISL:MBLA:1,2016-01-02T22:00:00Z,30.4367,-88.0117,14.2,7.33,347.8,-9999.0,'1111122,1111122,1111122' 
DISL,ioos:station:DISL:MBLA:1,2016-01-02T22:30:00Z,30.4367,-88.0117,14.2,8.16,356.9,-9999.0,'1111122,1111122,1111122' 
DISL,ioos:station:DISL:MBLA:1,2016-01-02T23:00:00Z,30.4367,-88.0117,14.2,7.22,9.19,-9999.0,'1111122,1111122,1111122' 
DISL,ioos:station:DISL:MBLA:1,2016-01-02T23:30:00Z,30.4367,-88.0117,14.2,6.89,350.1,-9999.0,'1111122,1111122,1111122' 
DISL,ioos:station:DISL:MBLA:1,2016-01-03T00:00:00Z,30.4367,-88.0117,14.2,7.02,348.9,-9999.0,'1111122,1111122,1111122' 
DISL,ioos:station:DISL:MBLA:1,2016-01-03T00:30:00Z,30.4367,-88.0117,14.2,6.48,355.4,-9999.0,'1111122,1111122,1111122' 
DISL,ioos:station:DISL:MBLA:1,2016-01-03T01:00:00Z,30.4367,-88.0117,14.2,6.45,356.0,-9999.0,'1111122,1111122,1111122' 
DISL,ioos:station:DISL:MBLA:1,2016-01-03T01:30:00Z,30.4367,-88.0117,14.2,7.14,0.38,-9999.0,'1111122,1111122,1111122' 
DISL,ioos:station:DISL:MBLA:1,2016-01-03T02:00:00Z,30.4367,-88.0117,14.2,8.09,16.2,-9999.0,'1111122,1111122,1111122' 
DISL,ioos:station:DISL:MBLA:1,2016-01-03T02:30:00Z,30.4367,-88.0117,14.2,7.36,12.42,-9999.0,'1111122,1111122,1111122' 
DISL,ioos:station:DISL:MBLA:1,2016-01-03T03:00:00Z,30.4367,-88.0117,14.2,6.56,5.795,-9999.0,'1111122,1111122,1111122' 
DISL,ioos:station:DISL:MBLA:1,2016-01-03T03:30:00Z,30.4367,-88.0117,14.2,6.1,19.09,-9999.0,'1111122,1111122,1111122' 
DISL,ioos:station:DISL:MBLA:1,2016-01-03T04:00:00Z,30.4367,-88.0117,14.2,4.92,45.61,-9999.0,'1111122,1111122,1111122' 
DISL,ioos:station:DISL:MBLA:1,2016-01-03T04:30:00Z,30.4367,-88.0117,14.2,5.91,40.89,-9999.0,'1111122,1111122,1111122' 
DISL,ioos:station:DISL:MBLA:1,2016-01-03T05:00:00Z,30.4367,-88.0117,14.2,6.14,38.85,-9999.0,'1111122,1111122,1111122' 
DISL,ioos:station:DISL:MBLA:1,2016-01-03T05:30:00Z,30.4367,-88.0117,14.2,6.53,40.56,-9999.0,'1111122,1111122,1111122' 
DISL,ioos:station:DISL:MBLA:1,2016-01-03T06:00:00Z,30.4367,-88.0117,14.2,6.56,40.67,-9999.0,'1111122,1111122,1111122' 
DISL,ioos:station:DISL:MBLA:1,2016-01-03T06:30:00Z,30.4367,-88.0117,14.2,6.43,31.46,-9999.0,'1111122,1111122,1111122' 
DISL,ioos:station:DISL:MBLA:1,2016-01-03T07:00:00Z,30.4367,-88.0117,14.2,6.93,25.42,-9999.0,'1111122,1111122,1111122' 
DISL,ioos:station:DISL:MBLA:1,2016-01-03T07:30:00Z,30.4367,-88.0117,14.2,6.91,33.31,-9999.0,'1111122,1111122,1111122' 
DISL,ioos:station:DISL:MBLA:1,2016-01-03T08:00:00Z,30.4367,-88.0117,14.2,6.98,33.52,-9999.0,'1111122,1111122,1111122' 
DISL,ioos:station:DISL:MBLA:1,2016-01-03T08:30:00Z,30.4367,-88.0117,14.2,6.64,27.41,-9999.0,'1111122,1111122,1111122' 
DISL,ioos:station:DISL:MBLA:1,2016-01-03T09:00:00Z,30.4367,-88.0117,14.2,6.45,32.36,-9999.0,'1111122,1111122,1111122' 
DISL,ioos:station:DISL:MBLA:1,2016-01-03T09:30:00Z,30.4367,-88.0117,14.2,6.07,39.77,-9999.0,'1111122,1111122,1111122' 
DISL,ioos:station:DISL:MBLA:1,2016-01-03T10:00:00Z,30.4367,-88.0117,14.2,6.35,28.44,-9999.0,'1111122,1111122,1111122' 
DISL,ioos:station:DISL:MBLA:1,2016-01-03T10:30:00Z,30.4367,-88.0117,14.2,7.06,28.69,-9999.0,'1111122,1111122,1111122' 
DISL,ioos:station:DISL:MBLA:1,2016-01-03T11:00:00Z,30.4367,-88.0117,14.2,9.23,43.13,-9999.0,'1111122,1111122,1111122' 
DISL,ioos:station:DISL:MBLA:1,2016-01-03T11:30:00Z,30.4367,-88.0117,14.2,9.08,31.43,-9999.0,'1111122,1111122,1111122' 
DISL,ioos:station:DISL:MBLA:1,2016-01-03T12:00:00Z,30.4367,-88.0117,14.2,9.53,32.78,-9999.0,'1111122,1111122,1111122' 
DISL,ioos:station:DISL:MBLA:1,2016-01-03T12:30:00Z,30.4367,-88.0117,14.2,9.82,23.37,-9999.0,'1111122,1111122,1111122' 
DISL,ioos:station:DISL:MBLA:1,2016-01-03T13:00:00Z,30.4367,-88.0117,14.2,9.13,21.27,-9999.0,'1111122,1111122,1111122' 
DISL,ioos:station:DISL:MBLA:1,2016-01-03T13:30:00Z,30.4367,-88.0117,14.2,9.23,15.0,-9999.0,'1111122,1111122,1111122' 
DISL,ioos:station:DISL:MBLA:1,2016-01-03T14:00:00Z,30.4367,-88.0117,14.2,7.54,6.801,-9999.0,'1111122,1111122,1111122' 
DISL,ioos:station:DISL:MBLA:1,2016-01-03T14:30:00Z,30.4367,-88.0117,14.2,8.08,9.23,-9999.0,'1111122,1111122,1111122' 
DISL,ioos:station:DISL:MBLA:1,2016-01-03T15:00:00Z,30.4367,-88.0117,14.2,4.32,346.4,-9999.0,'1111122,1111122,1111122' 
DISL,ioos:station:DISL:MBLA:1,2016-01-03T15:30:00Z,30.4367,-88.0117,14.2,3.71,353.2,-9999.0,'1111122,1111122,1111122' 
DISL,ioos:station:DISL:MBLA:1,2016-01-03T16:00:00Z,30.4367,-88.0117,14.2,4.65,13.46,-9999.0,'1111122,1111122,1111122' 
DISL,ioos:station:DISL:MBLA:1,2016-01-03T16:30:00Z,30.4367,-88.0117,14.2,4.21,18.11,-9999.0,'1111122,1111122,1111122' 
DISL,ioos:station:DISL:MBLA:1,2016-01-03T17:00:00Z,30.4367,-88.0117,14.2,4.32,357.2,-9999.0,'1111122,1111122,1111122' 
DISL,ioos:station:DISL:MBLA:1,2016-01-03T17:30:00Z,30.4367,-88.0117,14.2,3.56,352.1,-9999.0,'1111122,1111122,1111122' 
DISL,ioos:station:DISL:MBLA:1,2016-01-03T18:00:00Z,30.4367,-88.0117,14.2,3.43,346.9,-9999.0,'1111122,1111122,1111122' 
DISL,ioos:station:DISL:MBLA:1,2016-01-03T18:30:00Z,30.4367,-88.0117,14.2,3.26,341.4,-9999.0,'1111122,1111122,1111122' 
DISL,ioos:station:DISL:MBLA:1,2016-01-03T19:00:00Z,30.4367,-88.0117,14.2,3.79,6.347,-9999.0,'1111122,1111122,1111122' 
DISL,ioos:station:DISL:MBLA:1,2016-01-03T19:30:00Z,30.4367,-88.0117,14.2,3.17,356.8,-9999.0,'1111122,1111122,1111122' 
DISL,ioos:station:DISL:MBLA:1,2016-01-03T20:00:00Z,30.4367,-88.0117,14.2,4.8,346.8,-9999.0,'1111122,1111122,1111122' 
DISL,ioos:station:DISL:MBLA:1,2016-01-03T20:30:00Z,30.4367,-88.0117,14.2,5.5,353.1,-9999.0,'1111122,1111122,1111122' 
DISL,ioos:station:DISL:MBLA:1,2016-01-03T21:00:00Z,30.4367,-88.0117,14.2,5.47,348.7,-9999.0,'1111122,1111122,1111122' 
DISL,ioos:station:DISL:MBLA:1,2016-01-03T21:30:00Z,30.4367,-88.0117,14.2,4.65,341.1,-9999.0,'1111122,1111122,1111122' 
DISL,ioos:station:DISL:MBLA:1,2016-01-03T22:00:00Z,30.4367,-88.0117,14.2,5.29,349.8,-9999.0,'1111122,1111122,1111122' 
DISL,ioos:station:DISL:MBLA:1,2016-01-03T22:30:00Z,30.4367,-88.0117,14.2,6.06,347.3,-9999.0,'1111122,1111122,1111122' 
DISL,ioos:station:DISL:MBLA:1,2016-01-03T23:00:00Z,30.4367,-88.0117,14.2,4.81,6.979,-9999.0,'1111122,1111122,1111122' 
DISL,ioos:station:DISL:MBLA:1,2016-01-03T23:30:00Z,30.4367,-88.0117,14.2,5.16,0.622,-9999.0,'1111122,1111122,1111122' 
DISL,ioos:station:DISL:MBLA:1,2016-01-04T00:00:00Z,30.4367,-88.0117,14.2,4.87,345.8,-9999.0,'1111122,1111122,1111122' 
DISL,ioos:station:DISL:MBLA:1,2016-01-04T00:30:00Z,30.4367,-88.0117,14.2,4.49,344.1,-9999.0,'1111122,1111122,1111122' 
DISL,ioos:station:DISL:MBLA:1,2016-01-04T01:00:00Z,30.4367,-88.0117,14.2,4.9,342.8,-9999.0,'1111122,1111122,1111122' 
DISL,ioos:station:DISL:MBLA:1,2016-01-04T01:30:00Z,30.4367,-88.0117,14.2,4.84,344.4,-9999.0,'1111122,1111122,1111122' 
DISL,ioos:station:DISL:MBLA:1,2016-01-04T02:00:00Z,30.4367,-88.0117,14.2,6.04,338.7,-9999.0,'1111122,1111122,1111122' 
DISL,ioos:station:DISL:MBLA:1,2016-01-04T02:30:00Z,30.4367,-88.0117,14.2,7.2,339.2,-9999.0,'1111122,1111122,1111122' 
DISL,ioos:station:DISL:MBLA:1,2016-01-04T03:00:00Z,30.4367,-88.0117,14.2,8.11,336.2,-9999.0,'1111122,1111122,1111122' 
DISL,ioos:station:DISL:MBLA:1,2016-01-04T03:30:00Z,30.4367,-88.0117,14.2,7.49,339.6,-9999.0,'1111122,1111122,1111122' 
DISL,ioos:station:DISL:MBLA:1,2016-01-04T04:00:00Z,30.4367,-88.0117,14.2,4.43,335.7,-9999.0,'1111122,1111122,1111122' 
DISL,ioos:station:DISL:MBLA:1,2016-01-04T04:30:00Z,30.4367,-88.0117,14.2,4.18,336.4,-9999.0,'1111122,1111122,1111122' 
DISL,ioos:station:DISL:MBLA:1,2016-01-04T05:00:00Z,30.4367,-88.0117,14.2,6.05,332.2,-9999.0,'1111122,1111122,1111122' 
DISL,ioos:station:DISL:MBLA:1,2016-01-04T05:30:00Z,30.4367,-88.0117,14.2,8.14,340.6,-9999.0,'1111122,1111122,1111122' 
DISL,ioos:station:DISL:MBLA:1,2016-01-04T06:00:00Z,30.4367,-88.0117,14.2,8.13,350.2,-9999.0,'1111122,1111122,1111122' 
DISL,ioos:station:DISL:MBLA:1,2016-01-04T06:30:00Z,30.4367,-88.0117,14.2,8.09,346.8,-9999.0,'1111122,1111122,1111122' 
DISL,ioos:station:DISL:MBLA:1,2016-01-04T07:00:00Z,30.4367,-88.0117,14.2,6.84,338.6,-9999.0,'1111122,1111122,1111122' 
DISL,ioos:station:DISL:MBLA:1,2016-01-04T07:30:00Z,30.4367,-88.0117,14.2,6.87,340.7,-9999.0,'1111122,1111122,1111122' 
DISL,ioos:station:DISL:MBLA:1,2016-01-04T08:00:00Z,30.4367,-88.0117,14.2,7.36,341.2,-9999.0,'1111122,1111122,1111122' 
DISL,ioos:station:DISL:MBLA:1,2016-01-04T08:30:00Z,30.4367,-88.0117,14.2,9.75,353.6,-9999.0,'1111122,1111122,1111122' 
DISL,ioos:station:DISL:MBLA:1,2016-01-04T09:00:00Z,30.4367,-88.0117,14.2,9.75,359.7,-9999.0,'1111122,1111122,1111122' 
DISL,ioos:station:DISL:MBLA:1,2016-01-04T09:30:00Z,30.4367,-88.0117,14.2,10.53,355.7,-9999.0,'1111122,1111122,1111122' 
DISL,ioos:station:DISL:MBLA:1,2016-01-04T10:00:00Z,30.4367,-88.0117,14.2,10.06,1.093,-9999.0,'1111122,1111122,1111122' 
DISL,ioos:station:DISL:MBLA:1,2016-01-04T10:30:00Z,30.4367,-88.0117,14.2,8.74,8.11,-9999.0,'1111122,1111122,1111122' 
DISL,ioos:station:DISL:MBLA:1,2016-01-04T11:00:00Z,30.4367,-88.0117,14.2,8.76,357.5,-9999.0,'1111122,1111122,1111122' 
DISL,ioos:station:DISL:MBLA:1,2016-01-04T11:30:00Z,30.4367,-88.0117,14.2,6.82,352.7,-9999.0,'1111122,1111122,1111122' 
DISL,ioos:station:DISL:MBLA:1,2016-01-04T12:00:00Z,30.4367,-88.0117,14.2,8.31,351.7,-9999.0,'1111122,1111122,1111122' 
DISL,ioos:station:DISL:MBLA:1,2016-01-04T12:30:00Z,30.4367,-88.0117,14.2,8.07,342.6,-9999.0,'1111122,1111122,1111122' 
DISL,ioos:station:DISL:MBLA:1,2016-01-04T13:00:00Z,30.4367,-88.0117,14.2,7.65,343.8,-9999.0,'1111122,1111122,1111122' 
DISL,ioos:station:DISL:MBLA:1,2016-01-04T13:30:00Z,30.4367,-88.0117,14.2,8.42,347.0,-9999.0,'1111122,1111122,1111122' 
DISL,ioos:station:DISL:MBLA:1,2016-01-04T14:00:00Z,30.4367,-88.0117,14.2,9.73,353.3,-9999.0,'1111122,1111122,1111122' 
DISL,ioos:station:DISL:MBLA:1,2016-01-04T14:30:00Z,30.4367,-88.0117,14.2,7.51,356.8,-9999.0,'1111122,1111122,1111122' 
DISL,ioos:station:DISL:MBLA:1,2016-01-04T15:00:00Z,30.4367,-88.0117,14.2,8.33,352.2,-9999.0,'1111122,1111122,1111122' 
DISL,ioos:station:DISL:MBLA:1,2016-01-04T15:30:00Z,30.4367,-88.0117,14.2,8.5,5.665,-9999.0,'1111122,1111122,1111122' 
DISL,ioos:station:DISL:MBLA:1,2016-01-04T16:00:00Z,30.4367,-88.0117,14.2,7.68,4.564,-9999.0,'1111122,1111122,1111122' 
DISL,ioos:station:DISL:MBLA:1,2016-01-04T16:30:00Z,30.4367,-88.0117,14.2,6.61,358.1,-9999.0,'1111122,1111122,1111122' 
DISL,ioos:station:DISL:MBLA:1,2016-01-04T17:00:00Z,30.4367,-88.0117,14.2,6.26,349.1,-9999.0,'1111122,1111122,1111122' 
DISL,ioos:station:DISL:MBLA:1,2016-01-04T17:30:00Z,30.4367,-88.0117,14.2,6.76,346.5,-9999.0,'1111122,1111122,1111122' 
DISL,ioos:station:DISL:MBLA:1,2016-01-04T18:00:00Z,30.4367,-88.0117,14.2,8.82,356.5,-9999.0,'1111122,1111122,1111122' 
DISL,ioos:station:DISL:MBLA:1,2016-01-04T18:30:00Z,30.4367,-88.0117,14.2,8.56,353.3,-9999.0,'1111122,1111122,1111122' 
DISL,ioos:station:DISL:MBLA:1,2016-01-04T19:00:00Z,30.4367,-88.0117,14.2,8.6,355.5,-9999.0,'1111122,1111122,1111122' 
DISL,ioos:station:DISL:MBLA:1,2016-01-04T19:30:00Z,30.4367,-88.0117,14.2,9.93,2.971,-9999.0,'1111122,1111122,1111122' 
DISL,ioos:station:DISL:MBLA:1,2016-01-04T20:00:00Z,30.4367,-88.0117,14.2,10.16,6.356,-9999.0,'1111122,1111122,1111122' 
DISL,ioos:station:DISL:MBLA:1,2016-01-04T20:30:00Z,30.4367,-88.0117,14.2,10.74,6.96,-9999.0,'1111122,1111122,1111122' 
DISL,ioos:station:DISL:MBLA:1,2016-01-04T21:00:00Z,30.4367,-88.0117,14.2,9.85,9.43,-9999.0,'1111122,1111122,1111122' 
DISL,ioos:station:DISL:MBLA:1,2016-01-04T21:30:00Z,30.4367,-88.0117,14.2,10.48,6.383,-9999.0,'1111122,1111122,1111122' 
DISL,ioos:station:DISL:MBLA:1,2016-01-04T22:00:00Z,30.4367,-88.0117,14.2,10.89,359.6,-9999.0,'1111122,1111122,1111122' 
DISL,ioos:station:DISL:MBLA:1,2016-01-04T22:30:00Z,30.4367,-88.0117,14.2,11.27,2.079,-9999.0,'1111122,1111122,1111122' 
DISL,ioos:station:DISL:MBLA:1,2016-01-04T23:00:00Z,30.4367,-88.0117,14.2,11.06,7.91,-9999.0,'1111122,1111122,1111122' 
DISL,ioos:station:DISL:MBLA:1,2016-01-04T23:30:00Z,30.4367,-88.0117,14.2,11.1,7.471,-9999.0,'1111122,1111122,1111122' 
DISL,ioos:station:DISL:MBLA:1,2016-01-05T00:00:00Z,30.4367,-88.0117,14.2,11.71,2.997,-9999.0,'1111122,1111122,1111122' 
DISL,ioos:station:DISL:MBLA:1,2016-01-05T00:30:00Z,30.4367,-88.0117,14.2,12.42,4.85,-9999.0,'1111122,1111122,1111122' 
DISL,ioos:station:DISL:MBLA:1,2016-01-05T01:00:00Z,30.4367,-88.0117,14.2,12.18,12.0,-9999.0,'1111122,1111122,1111122' 
DISL,ioos:station:DISL:MBLA:1,2016-01-05T01:30:00Z,30.4367,-88.0117,14.2,14.44,25.14,-9999.0,'1111122,1111122,1111122' 
DISL,ioos:station:DISL:MBLA:1,2016-01-05T02:00:00Z,30.4367,-88.0117,14.2,13.74,17.57,-9999.0,'1111122,1111122,1111122' 
DISL,ioos:station:DISL:MBLA:1,2016-01-05T02:30:00Z,30.4367,-88.0117,14.2,14.1,16.7,-9999.0,'1111122,1111122,1111122' 
DISL,ioos:station:DISL:MBLA:1,2016-01-05T03:00:00Z,30.4367,-88.0117,14.2,14.95,20.66,-9999.0,'1111122,1111122,1111122' 
DISL,ioos:station:DISL:MBLA:1,2016-01-05T03:30:00Z,30.4367,-88.0117,14.2,15.18,20.55,-9999.0,'1111122,1111122,1111122' 
DISL,ioos:station:DISL:MBLA:1,2016-01-05T04:00:00Z,30.4367,-88.0117,14.2,15.06,26.86,-9999.0,'1111122,1111122,1111122' 
DISL,ioos:station:DISL:MBLA:1,2016-01-05T04:30:00Z,30.4367,-88.0117,14.2,12.89,29.43,-9999.0,'1111122,1111122,1111122' 